Powrót do katalogu

STARLINK-3268

AktywnyŁącznośćVLEO
NORAD 50190·PAYLOAD·🇺🇸 United States

Wystrzelony Dec 18, 2021 z Vandenberg Space Force Base

Loading…

Następne Przeloty (najbliższe 24 godziny)

TLE

ŚwieżeSource: CelesTrak SupGP

Epoka: Sep 14, 2026, 21:49 UTC

1 50190C 21125AL  26257.90951389  .00024278  00000+0  71734-3 0  2576
2 50190  53.1580  93.5140 0001141  79.9632 105.1689 15.34377082    15

Śledź STARLINK-3268 w czasie rzeczywistym z AllMySat

Download on the App Store